Flag for Australia Weather past 2 weeks in Brisbane, Queensland, Australia

82 °F

Passing clouds.

Feels Like: 88 °F
Forecast: 70 / 89 °F
Wind: 20 mph from Northeast

Location: Brisbane Airport M. O

Current Time: Nov 30, 2015 at 2:37:06 PM

Latest Report: Nov 30, 2015 at 1:30 PM

Visibility: N/A

Pressure: 29.83 "Hg

Humidity: 74%

Dew point: 73 °F

Location of BrisbaneLocation

Historic Weather in Brisbane — Graph


Brisbane temperature yesterday

Maximum temperature yesterday: 82 °F (at 9:00 AM)
Minimum temperature yesterday: 70 °F (at 6:00 PM)
Average temperature yesterday: 76 °F

Past Weeks' High & Low Weather Summary

High84 °F (Nov 21, 11:00 AM)100% (Nov 29, 6:05 PM)30.12 "Hg (Nov 29, 6:05 PM)
Low61 °F (Nov 18, 3:30 AM)47% (Nov 17, 1:00 PM)29.74 "Hg (Nov 26, 4:00 PM)
Average75 °F75%29.95 "Hg
* Reported Nov 15 1:00 PM — Nov 30 1:00 PM, Brisbane, Weather by CustomWeather, © 2015

Note: Actual official high and low records may vary slightly from our data, if they occured in-between our weather recording intervals... More about our weather records


Brisbane weather history for previous 24 hours

Time TempWeatherWind HumidityBarometerVisibility
1:00 PM
Mon, Nov 30
82 °FPassing clouds.22 mph74%29.83 "HgN/A
12:00 PM84 °FPassing clouds.21 mph70%29.86 "HgN/A
11:00 AM84 °FPassing clouds.20 mph70%29.89 "HgN/A
10:00 AM84 °FScattered clouds.10 mph66%29.89 "HgN/A
9:30 AM82 °FScattered clouds.10 mph66%29.89 "HgN/A
9:00 AM82 °FScattered clouds.13 mph66%29.89 "HgN/A
8:30 AM81 °FScattered clouds.14 mph70%29.89 "HgN/A
8:00 AM79 °FPassing clouds.15 mph79%29.89 "HgN/A
7:00 AM77 °FPassing clouds.12 mph83%29.89 "HgN/A
6:30 AM75 °FPassing clouds.10 mph89%29.89 "HgN/A
6:00 AM73 °FPassing clouds.6 mph94%29.89 "HgN/A
5:00 AM73 °FScattered clouds.10 mph94%29.86 "HgN/A
4:30 AM73 °FSprinkles. Broken clouds.16 mph94%29.80 "Hg6 mi
4:00 AM72 °FSprinkles. Partly sunny.8 mph100%29.86 "HgN/A
3:30 AM72 °FSprinkles. Partly cloudy.2 mph94%29.86 "Hg6 mi
3:00 AM73 °FPartly cloudy.9 mph94%29.86 "HgN/A
2:30 AM72 °FPassing clouds.5 mph94%29.83 "HgN/A
2:00 AM72 °FScattered showers. Partly cloudy.7 mph94%29.86 "HgN/A
1:00 AM70 °FPassing clouds.5 mph94%29.86 "HgN/A
12:30 AM70 °FPassing clouds.3 mph94%29.86 "HgN/A
12:00 AM70 °FPartly cloudy.6 mph94%29.89 "HgN/A
11:00 PM
Sun, Nov 29
70 °FPassing clouds.6 mph94%29.89 "HgN/A
10:30 PM70 °FPassing clouds.5 mph94%29.89 "HgN/A
10:00 PM70 °FPassing clouds.6 mph94%29.89 "HgN/A
9:30 PM70 °FPassing clouds.2 mph88%29.89 "HgN/A
9:00 PM70 °FPassing clouds.9 mph94%29.89 "HgN/A
8:30 PM72 °FPassing clouds.8 mph94%29.86 "HgN/A
8:00 PM72 °FPassing clouds.13 mph88%29.83 "HgN/A
7:30 PM72 °FThunderstorms. Passing clouds.18 mph94%29.80 "HgN/A
7:00 PM70 °FThunderstorms. Partly cloudy.7 mph100%29.80 "Hg5 mi
6:30 PM70 °FThunderstorms. Partly cloudy.13 mph94%29.83 "Hg3 mi
6:05 PM70 °FStrong thunderstorms. Partly cloudy.21 mph100%29.80 "Hg1 mi
6:00 PM70 °FStrong thunderstorms. Partly cloudy.13 mph94%29.83 "Hg2 mi
5:00 PM79 °FPartly sunny.23 mph79%29.77 "HgN/A
4:30 PM79 °FPartly sunny.25 mph79%29.77 "HgN/A
4:00 PM81 °FPartly sunny.24 mph74%29.77 "HgN/A
3:00 PM82 °FBroken clouds.23 mph70%29.80 "HgN/A
2:00 PM82 °FScattered clouds.24 mph70%29.80 "HgN/A
Weather by CustomWeather, © 2015

See weather overviewHow to use our weather pages